Location: Morisset
(33.1080°S, 151.4871°E)
Time: 08:17:27
(UTC+00:00)

Cosmos 371 Rocket - Pass Details

Date: 29 October 2020
Orbit: 683 x 700 km, 74.0° (Epoch: 28 November)

Event Time Altitude Azimuth Distance (km) Brightness Sun altitude
Exits shadow 16:49:07 38° 27° (NNE) 1,063 4.1 -24.6°
Maximum altitude 16:50:34 52° 77° (ENE) 874 3.9 -24.3°
Drops below altitude 10° 16:55:19 10° 152° (SSE) 2,174 6.7 -23.5°
Sets 16:57:42 0° 157° (SSE) 3,096 7.6 -23.1°
